TimeCST,TemperatureF,Dew PointF,Humidity,Sea Level PressureIn,VisibilityMPH,Wind Direction,Wind SpeedMPH,Gust SpeedMPH,PrecipitationIn,Events,Conditions,WindDirDegrees,DateUTC
12:54 AM,44.1,30.0,58,30.09,10.0,South,12.7,-,N/A,,Clear,190,2013-01-19 06:54:00
1:54 AM,43.0,30.0,60,30.09,10.0,South,12.7,-,N/A,,Clear,190,2013-01-19 07:54:00
2:54 AM,42.1,30.0,62,30.08,10.0,South,10.4,-,N/A,,Clear,190,2013-01-19 08:54:00
3:54 AM,41.0,30.0,65,30.07,10.0,South,9.2,-,N/A,,Clear,190,2013-01-19 09:54:00
4:54 AM,39.9,30.0,68,30.07,10.0,SSW,6.9,-,N/A,,Clear,210,2013-01-19 10:54:00
5:54 AM,37.9,28.9,70,30.08,10.0,South,6.9,-,N/A,,Clear,190,2013-01-19 11:54:00
6:54 AM,35.1,28.0,76,30.09,10.0,SSW,4.6,-,N/A,,Clear,200,2013-01-19 12:54:00
7:54 AM,34.0,28.0,79,30.11,10.0,SSW,3.5,-,N/A,,Clear,200,2013-01-19 13:54:00
8:54 AM,41.0,32.0,70,30.12,10.0,SSW,5.8,-,N/A,,Clear,200,2013-01-19 14:54:00
9:54 AM,46.9,33.1,59,30.14,10.0,SW,8.1,-,N/A,,Clear,230,2013-01-19 15:54:00
10:54 AM,52.0,33.1,49,30.14,10.0,WSW,9.2,-,N/A,,Clear,250,2013-01-19 16:54:00
11:54 AM,54.0,33.1,45,30.12,10.0,South,4.6,-,N/A,,Clear,190,2013-01-19 17:54:00
12:54 PM,57.0,32.0,39,30.09,10.0,WSW,5.8,-,N/A,,Clear,250,2013-01-19 18:54:00
1:54 PM,61.0,33.1,35,30.08,10.0,West,5.8,-,N/A,,Clear,270,2013-01-19 19:54:00
2:54 PM,63.0,30.9,30,30.08,10.0,West,8.1,-,N/A,,Clear,280,2013-01-19 20:54:00
3:54 PM,63.0,28.0,27,30.10,10.0,NNW,11.5,-,N/A,,Clear,330,2013-01-19 21:54:00
4:54 PM,60.1,28.0,30,30.13,10.0,NNW,8.1,-,N/A,,Clear,340,2013-01-19 22:54:00
5:54 PM,50.0,28.9,44,30.16,10.0,NNW,4.6,-,N/A,,Clear,330,2013-01-19 23:54:00
6:54 PM,43.0,28.0,56,30.19,10.0,NNW,4.6,-,N/A,,Clear,340,2013-01-20 00:54:00
7:54 PM,42.1,26.1,53,30.22,10.0,North,3.5,-,N/A,,Clear,10,2013-01-20 01:54:00
8:54 PM,39.9,26.1,58,30.23,10.0,North,3.5,-,N/A,,Clear,10,2013-01-20 02:54:00
9:54 PM,37.9,24.1,57,30.24,10.0,NNE,3.5,-,N/A,,Clear,30,2013-01-20 03:54:00
10:54 PM,37.9,24.1,57,30.25,10.0,Calm,Calm,-,N/A,,Clear,0,2013-01-20 04:54:00